DW1937 Weather Reports


time (UTC)temp
C
wind
direction
speed
KPH
gust
KPH
rain 1hr
cm
rain 24hr
cm
rain mn
cm
humidity
%
barometer
mb
20260504193023 26 46 9.7 16.1 0.00 4.09 2.13 81 1012.7
20260504191525 26 52 8.0 14.5 0.00 4.09 2.13 83 1013.1
20260504190022 26 20 9.7 16.1 0.00 4.09 2.13 83 1013.3
20260504184521 25 34 9.7 14.5 0.00 4.22 2.13 84 1013.6
20260504183027 25 20 9.7 16.1 0.00 4.22 2.13 84 1013.7
20260504181520 25 20 11.3 19.3 0.00 4.22 2.13 84 1013.7
20260504180019 25 24 11.3 19.3 0.00 4.22 2.13 84 1013.8
20260504174519 25 20 11.3 19.3 0.00 4.27 2.13 84 1013.8
20260504173018 25 34 14.5 20.9 0.00 4.27 2.13 83 1014.0
20260504171518 25 29 11.3 17.7 0.00 4.27 2.13 83 1013.9
20260504081548 23 323 9.7 14.5 0.33 4.27 2.13 91 1011.9
20260504044521 23 192 1.6 8.0 0.05 2.18 0.05 91 1014.2
20260504043021 24 181 4.8 9.7 0.05 2.18 0.05 90 1014.2
20260504041517 24 201 1.6 8.0 0.00 2.13 0.00 90 1014.0
20260504040015 23 212 1.6 6.4 0.03 2.13 0.00 90 1014.0
20260504034515 23 221 1.6 8.0 0.05 2.16 2.13 90 1013.8
20260504033015 23 218 3.2 8.0 0.20 2.16 2.13 90 1013.8
20260504031514 23 199 3.2 9.7 0.20 2.16 2.13 89 1014.1
20260504030015 23 199 3.2 8.0 0.18 2.13 2.11 88 1014.3
20260504024512 23 162 3.2 17.7 0.13 2.08 2.06 87 1014.3
20260504023013 24 188 3.2 9.7 0.00 1.96 1.93 85 1014.6
20260504021611 24 188 1.6 8.0 0.00 1.96 1.93 85 1014.4
20260504020013 24 221 1.6 4.8 0.00 1.96 1.93 86 1014.3
20260504014510 25 353 0.0 8.0 0.00 1.96 1.93 86 1013.9
20260504013013 25 187 1.6 4.8 0.00 1.96 1.93 87 1013.9
20260504011509 25 202 0.0 0.0 0.00 1.96 1.93 87 1014.1
20260504010010 25 41 0.0 0.0 0.00 1.96 1.93 86 1013.6
20260504004509 25 41 0.0 3.2 0.00 1.96 1.93 86 1013.5
20260504003008 25 82 0.0 0.0 0.00 1.96 1.93 85 1013.4
20260504001508 25 82 0.0 0.0 0.00 1.96 1.93 85 1013.3
20260504000017 25 68 1.6 4.8 0.00 1.96 1.93 85 1013.0
20260503234507 25 96 1.6 4.8 0.00 1.96 1.93 85 1012.9
20260503233006 25 80 0.0 6.4 0.00 1.96 1.93 84 1012.9
20260503231505 25 129 1.6 8.0 0.00 1.96 1.93 83 1012.5
20260503230007 25 49 0.0 3.2 0.00 1.96 1.93 84 1012.4
20260503224506 25 59 0.0 3.2 0.00 1.96 1.93 83 1012.7
20260503223005 25 68 0.0 6.4 0.00 1.96 1.93 83 1012.5
20260503221503 25 91 1.6 6.4 0.00 1.96 1.93 84 1012.4
20260503220005 25 67 1.6 6.4 0.00 1.96 1.93 84 1012.3
20260503214511 25 74 0.0 4.8 0.00 1.96 1.93 86 1012.6
20260503213002 24 33 1.6 6.4 0.00 1.96 1.93 87 1012.5
20260503211503 23 72 3.2 6.4 0.00 1.96 1.93 87 1012.6
20260503210003 23 34 3.2 9.7 0.00 1.96 1.93 88 1012.8
20260503204610 23 156 1.6 6.4 0.71 1.96 1.93 88 1013.2
20260503203107 23 53 1.6 9.7 0.99 1.96 1.93 89 1013.5
20260503201559 23 44 4.8 12.9 1.17 1.96 1.93 89 1013.5
20260503200057 23 47 8.0 9.7 1.75 1.96 1.93 89 1013.4
20260503194616 23 176 3.2 8.0 1.17 1.24 1.22 89 1014.5